Simultaneous Nadir Overpasses (SNOs) Predictions

Prediction of SNOs between GOES-17 and METOP-B Satellite Orbit:

Table of predicted SNOs for the next 14.0 days since TLE Epoch: 3/14/2025
Index Date Time (GOES-17) GOES-17 Lat,Lon METOP-B Lat,Lon Distance(km) Time Diff (sec)
1 03/15/2025 04:07:14 -0.03,-104.39 0.13,-103.74 73.69 80
2 03/16/2025 16:26:10 0.03,-104.42 0.87,-108.35 446.78 80
3 03/17/2025 16:02:53 0.02,-104.42 -0.21,-103.37 120.02 80
4 03/19/2025 04:21:56 -0.02,-104.39 -0.85,-107.99 410.97 80
5 03/20/2025 04:04:00 -0.02,-104.39 0.30,-103.02 155.83 80
6 03/21/2025 16:22:55 0.02,-104.41 0.73,-107.62 364.84 80
7 03/22/2025 15:59:38 0.02,-104.41 -0.36,-102.64 201.73 80
8 03/24/2025 04:18:41 -0.02,-104.37 -0.68,-107.26 329.68 80
9 03/25/2025 04:00:43 -0.02,-104.37 0.42,-102.29 237.08 80
10 03/26/2025 16:19:39 0.01,-104.40 0.59,-106.88 283.46 80
11 03/27/2025 15:56:21 0.01,-104.40 -0.52,-101.91 283.39 80
